Location: Penzberg
(47.7615°N, 11.3159°E)
Time: 04:46:07
(UTC+01:00)

ISS - Pass Details

Date: 13 January 2018
Orbit: 402 x 407 km, 51.6° (Epoch: 18 January)

Event Time Altitude Azimuth Distance (km) Brightness Sun altitude
Exits shadow 07:06:34 10° 266° (W) 1,472 -1.5 -8.8°
Reaches altitude 10° 07:06:35 10° 266° (W) 1,465 -1.6 -8.8°
Maximum altitude 07:08:49 17° 222° (SW) 1,107 -1.8 -8.5°
Drops below altitude 10° 07:11:03 10° 179° (S) 1,460 -0.7 -8.2°
Sets 07:13:36 0° 159° (SSE) 2,316 0.8 -7.8°
